MV Lockmaster — WDF4136 — position and weather

sailwx.info

Track history (hours):
 
Tides and Currents Weather Stations Pressure Air Temp Water Temp Dewpoint Dewpoint Depression Visibility Wind Speed Wind Dir Waves Ship Positions

MV Lockmaster

Owner: River Construction, Metaire, LA. More information available from US FCC via Universal Licensing System and Coast Guard Vessel Documentation Center.

Last reported at 2014-Oct-31 16:28 UTC. Time now 2014-Nov-01 00:35 UTC.
Position N 29°58' W 090°02'.

Type: Towing. MMSI: 367448420.

Date/timePositionNaut miles runAvg speedWind from/ knotsBaromVisibWave heightAir tempDewpointWater temp
2014-Oct-31 16:28N 29°58' W 090°02'3 0.9
2014-Oct-31 13:30N 30°00' W 089°59'0 0.0
2014-Oct-31 12:32N 30°00' W 089°59'0 0.0
2014-Oct-31 11:32N 30°00' W 089°59'0 0.0
2014-Oct-31 10:32N 30°00' W 089°59'0 0.1
2014-Oct-31 09:32N 30°00' W 089°59'0 0.0
2014-Oct-31 08:31N 30°00' W 089°59'0 0.1
2014-Oct-31 07:33N 30°00' W 089°59'0 0.0
2014-Oct-31 06:29N 30°00' W 089°59'0 0.0
2014-Oct-31 05:31N 30°00' W 089°59'0 0.0
2014-Oct-31 04:32N 30°00' W 089°59'0 0.0
2014-Oct-31 03:33N 30°00' W 089°59'0 0.0
2014-Oct-31 02:29N 30°00' W 089°59'0 0.0
2014-Oct-31 01:32N 30°00' W 089°59'0 0.0
2014-Oct-31 00:22N 30°00' W 089°59'0 0.0
2014-Oct-30 15:26N 30°00' W 089°59'0 0.0
2014-Oct-30 14:33N 30°00' W 089°59'0 0.0
2014-Oct-30 13:24N 30°00' W 089°59'0 0.0
2014-Oct-30 12:32N 29°60' W 089°59'0 0.2
2014-Oct-30 11:33N 30°00' W 089°59'0 0.0
2014-Oct-30 10:30N 30°00' W 089°59'0 0.0
2014-Oct-30 09:33N 30°00' W 089°59'0 0.0
2014-Oct-30 08:33N 30°00' W 089°59'0 0.1
2014-Oct-30 07:33N 29°60' W 089°59'0 0.0
2014-Oct-30 06:33N 29°60' W 089°59'0 0.0
2014-Oct-30 05:33N 29°60' W 089°59'0 0.0
2014-Oct-30 04:33N 29°60' W 089°59'0 0.0
2014-Oct-30 03:32N 29°60' W 089°59'0 0.0
2014-Oct-30 02:32N 29°60' W 089°59'0 0.0
2014-Oct-30 01:26N 29°60' W 089°59'0 0.0
2014-Oct-29 14:20N 30°00' W 089°59'0 0.0
2014-Oct-29 13:26N 30°00' W 089°59'0 0.0
2014-Oct-29 12:32N 30°00' W 089°59'0 0.0
2014-Oct-29 11:13N 30°00' W 089°59'0 0.0
2014-Oct-29 10:31N 30°00' W 089°59'0 0.0
2014-Oct-29 09:30N 30°00' W 089°59'0 0.1
2014-Oct-29 08:33N 29°60' W 089°59'0 0.1
2014-Oct-29 07:19N 29°60' W 089°59'0 0.0
2014-Oct-29 06:27N 29°60' W 089°59'0 0.0
2014-Oct-29 05:26N 29°60' W 089°59'0 0.0
2014-Oct-29 04:33N 29°60' W 089°59'0 0.0
2014-Oct-29 03:32N 29°60' W 089°59'0 0.0
2014-Oct-29 02:31N 29°60' W 089°59'0 0.0
2014-Oct-29 01:21N 29°60' W 089°59'0 0.0
2014-Oct-29 00:31N 29°60' W 089°59'2 0.3
2014-Oct-28 16:09N 29°58' W 090°01'0 0.0
2014-Oct-28 15:33N 29°58' W 090°01'3 0.5
2014-Oct-28 10:27N 30°00' W 089°59'0 0.0
2014-Oct-28 09:18N 30°00' W 089°59'3 4.0
2014-Oct-28 08:33N 29°58' W 090°02'1 0.8
2014-Oct-28 07:33N 29°58' W 090°02'1 1.1
2014-Oct-28 06:31N 29°58' W 090°02'2 2.5
2014-Oct-28 05:33N 29°60' W 089°59'0 0.1
2014-Oct-28 04:30N 29°60' W 089°59'0 0.0
2014-Oct-28 03:33N 29°60' W 089°59'0 0.0
2014-Oct-28 01:28N 29°60' W 089°59'0 0.0
2014-Oct-27 13:33N 30°00' W 089°59'0 0.0
2014-Oct-27 12:25N 30°00' W 089°59'0 0.0
2014-Oct-27 11:32N 30°00' W 089°59'0 0.0
2014-Oct-27 10:33N 30°00' W 089°59'0 0.0
2014-Oct-27 09:27N 30°00' W 089°59'0 0.2
2014-Oct-27 08:30N 29°60' W 089°59'3 3.1
2014-Oct-27 07:33N 29°58' W 090°02'0 0.0
2014-Oct-27 06:33N 29°58' W 090°02'3 2.8
2014-Oct-27 05:30N 30°00' W 089°59'0 0.0
2014-Oct-27 04:31N 30°00' W 089°59'3 2.8
2014-Oct-27 03:32N 29°58' W 090°02'0 0.2
2014-Oct-27 02:32N 29°58' W 090°02'2 2.1
2014-Oct-27 01:32N 29°56' W 090°04'1 1.2
2014-Oct-27 00:31N 29°58' W 090°03'4 3.9
2014-Oct-26 23:31N 29°60' W 089°59'0 0.1
2014-Oct-26 22:31N 30°00' W 089°59'0 0.0
2014-Oct-26 21:33N 30°00' W 089°59'0 0.1
2014-Oct-26 20:33N 30°00' W 089°59'0 0.1
2014-Oct-26 19:33N 30°00' W 089°59'0 0.0
2014-Oct-26 18:33N 30°00' W 089°59'0 0.0
2014-Oct-26 17:30N 30°00' W 089°59'0 0.0
2014-Oct-26 16:29N 30°00' W 089°59'0 0.0
2014-Oct-26 08:28N 30°00' W 089°59'0 0.0
2014-Oct-26 07:33N 30°00' W 089°59'0 0.0
2014-Oct-26 06:33N 30°00' W 089°59'3 2.8
2014-Oct-26 05:33N 29°58' W 090°02'2 1.5
2014-Oct-26 04:32N 29°58' W 090°03'1 1.4
2014-Oct-26 03:31N 29°58' W 090°02'0 0.0
2014-Oct-26 02:30N 29°58' W 090°02'0 0.2
2014-Oct-26 01:33N 29°57' W 090°02'3 0.2
2014-Oct-25 09:32N 29°60' W 089°59'0 0.3
2014-Oct-25 08:25N 30°00' W 089°59'0 0.0
2014-Oct-25 07:32N 30°00' W 089°59'0 0.2
2014-Oct-25 06:33N 30°00' W 089°59'3 3.0
2014-Oct-25 05:32N 29°58' W 090°02'2 2.0
2014-Oct-25 04:33N 29°57' W 090°04'0 0.1
2014-Oct-25 03:33N 29°57' W 090°04'1 0.6
2014-Oct-25 02:32N 29°57' W 090°03'0 0.4
2014-Oct-25 01:32N 29°57' W 090°04'2 2.0
2014-Oct-25 00:31N 29°58' W 090°02'3 2.8
2014-Oct-24 23:33N 29°60' W 089°60'4 3.8
2014-Oct-24 22:31N 30°01' W 089°55'4 3.8
2014-Oct-24 21:33N 30°00' W 089°59'0 0.0
2014-Oct-24 13:05N 30°00' W 089°59'0 0.0
2014-Oct-24 12:31N 30°00' W 089°59'0 0.0
2014-Oct-24 07:16N 29°60' W 089°59'0 0.1
2014-Oct-24 05:28N 29°60' W 089°59'0 0.0
2014-Oct-24 04:33N 29°60' W 089°59'3 2.9
2014-Oct-24 03:32N 29°58' W 090°02'2 1.5
2014-Oct-24 02:26N 29°57' W 090°03'0 0.2
2014-Oct-24 01:31N 29°57' W 090°03'0 0.4
2014-Oct-24 00:34N 29°58' W 090°03'0 0.1
2014-Oct-23 23:32N 29°58' W 090°03'3 3.4
2014-Oct-23 22:33N 29°60' W 090°00'1 0.5
2014-Oct-23 21:30N 30°00' W 089°59'0 0.0
2014-Oct-23 20:26N 30°00' W 089°59'0 0.1
2014-Oct-23 19:31N 30°00' W 089°59'0 0.0
2014-Oct-23 18:33N 30°00' W 089°59'0 0.0
2014-Oct-23 04:33N 30°00' W 089°59'0 0.0
2014-Oct-23 03:25N 30°00' W 089°59'0 0.0
2014-Oct-23 02:29N 30°00' W 089°59'0 0.0
2014-Oct-23 01:29N 30°00' W 089°59'0 0.1
2014-Oct-23 00:33N 29°60' W 089°59'0 0.1
2014-Oct-22 23:31N 29°60' W 089°59'0 0.0
2014-Oct-22 22:31N 29°60' W 089°59'0 0.0
2014-Oct-22 21:30N 29°60' W 089°59'0 0.1
2014-Oct-22 20:33N 30°00' W 089°59'0 0.0
2014-Oct-22 19:33N 30°00' W 089°59'0 0.0
2014-Oct-22 18:32N 30°00' W 089°59'0 0.0
2014-Oct-22 17:31N 30°00' W 089°59'5 1.2
2014-Oct-22 13:19N 30°01' W 089°54'  
Track history (hours):
 
Tides and Currents Weather Stations Pressure Air Temp Water Temp Dewpoint Dewpoint Depression Visibility Wind Speed Wind Dir Waves Ship Positions

MV Lockmaster

Owner: River Construction, Metaire, LA. More information available from US FCC via Universal Licensing System and Coast Guard Vessel Documentation Center.

Last reported at 2014-Oct-31 16:28 UTC. Time now 2014-Nov-01 00:35 UTC.
Position N 29°58' W 090°02'.

Type: Towing. MMSI: 367448420.

Date/timePositionNaut miles runAvg speedWind from/ knotsBaromVisibWave heightAir tempDewpointWater temp
2014-Oct-31 16:28N 29°58' W 090°02'3 0.9
2014-Oct-31 13:30N 30°00' W 089°59'0 0.0
2014-Oct-31 12:32N 30°00' W 089°59'0 0.0
2014-Oct-31 11:32N 30°00' W 089°59'0 0.0
2014-Oct-31 10:32N 30°00' W 089°59'0 0.1
2014-Oct-31 09:32N 30°00' W 089°59'0 0.0
2014-Oct-31 08:31N 30°00' W 089°59'0 0.1
2014-Oct-31 07:33N 30°00' W 089°59'0 0.0
2014-Oct-31 06:29N 30°00' W 089°59'0 0.0
2014-Oct-31 05:31N 30°00' W 089°59'0 0.0
2014-Oct-31 04:32N 30°00' W 089°59'0 0.0
2014-Oct-31 03:33N 30°00' W 089°59'0 0.0
2014-Oct-31 02:29N 30°00' W 089°59'0 0.0
2014-Oct-31 01:32N 30°00' W 089°59'0 0.0
2014-Oct-31 00:22N 30°00' W 089°59'0 0.0
2014-Oct-30 15:26N 30°00' W 089°59'0 0.0
2014-Oct-30 14:33N 30°00' W 089°59'0 0.0
2014-Oct-30 13:24N 30°00' W 089°59'0 0.0
2014-Oct-30 12:32N 29°60' W 089°59'0 0.2
2014-Oct-30 11:33N 30°00' W 089°59'0 0.0
2014-Oct-30 10:30N 30°00' W 089°59'0 0.0
2014-Oct-30 09:33N 30°00' W 089°59'0 0.0
2014-Oct-30 08:33N 30°00' W 089°59'0 0.1
2014-Oct-30 07:33N 29°60' W 089°59'0 0.0
2014-Oct-30 06:33N 29°60' W 089°59'0 0.0
2014-Oct-30 05:33N 29°60' W 089°59'0 0.0
2014-Oct-30 04:33N 29°60' W 089°59'0 0.0
2014-Oct-30 03:32N 29°60' W 089°59'0 0.0
2014-Oct-30 02:32N 29°60' W 089°59'0 0.0
2014-Oct-30 01:26N 29°60' W 089°59'0 0.0
2014-Oct-29 14:20N 30°00' W 089°59'0 0.0
2014-Oct-29 13:26N 30°00' W 089°59'0 0.0
2014-Oct-29 12:32N 30°00' W 089°59'0 0.0
2014-Oct-29 11:13N 30°00' W 089°59'0 0.0
2014-Oct-29 10:31N 30°00' W 089°59'0 0.0
2014-Oct-29 09:30N 30°00' W 089°59'0 0.1
2014-Oct-29 08:33N 29°60' W 089°59'0 0.1
2014-Oct-29 07:19N 29°60' W 089°59'0 0.0
2014-Oct-29 06:27N 29°60' W 089°59'0 0.0
2014-Oct-29 05:26N 29°60' W 089°59'0 0.0
2014-Oct-29 04:33N 29°60' W 089°59'0 0.0
2014-Oct-29 03:32N 29°60' W 089°59'0 0.0
2014-Oct-29 02:31N 29°60' W 089°59'0 0.0
2014-Oct-29 01:21N 29°60' W 089°59'0 0.0
2014-Oct-29 00:31N 29°60' W 089°59'2 0.3
2014-Oct-28 16:09N 29°58' W 090°01'0 0.0
2014-Oct-28 15:33N 29°58' W 090°01'3 0.5
2014-Oct-28 10:27N 30°00' W 089°59'0 0.0
2014-Oct-28 09:18N 30°00' W 089°59'3 4.0
2014-Oct-28 08:33N 29°58' W 090°02'1 0.8
2014-Oct-28 07:33N 29°58' W 090°02'1 1.1
2014-Oct-28 06:31N 29°58' W 090°02'2 2.5
2014-Oct-28 05:33N 29°60' W 089°59'0 0.1
2014-Oct-28 04:30N 29°60' W 089°59'0 0.0
2014-Oct-28 03:33N 29°60' W 089°59'0 0.0
2014-Oct-28 01:28N 29°60' W 089°59'0 0.0
2014-Oct-27 13:33N 30°00' W 089°59'0 0.0
2014-Oct-27 12:25N 30°00' W 089°59'0 0.0
2014-Oct-27 11:32N 30°00' W 089°59'0 0.0
2014-Oct-27 10:33N 30°00' W 089°59'0 0.0
2014-Oct-27 09:27N 30°00' W 089°59'0 0.2
2014-Oct-27 08:30N 29°60' W 089°59'3 3.1
2014-Oct-27 07:33N 29°58' W 090°02'0 0.0
2014-Oct-27 06:33N 29°58' W 090°02'3 2.8
2014-Oct-27 05:30N 30°00' W 089°59'0 0.0
2014-Oct-27 04:31N 30°00' W 089°59'3 2.8
2014-Oct-27 03:32N 29°58' W 090°02'0 0.2
2014-Oct-27 02:32N 29°58' W 090°02'2 2.1
2014-Oct-27 01:32N 29°56' W 090°04'1 1.2
2014-Oct-27 00:31N 29°58' W 090°03'4 3.9
2014-Oct-26 23:31N 29°60' W 089°59'0 0.1
2014-Oct-26 22:31N 30°00' W 089°59'0 0.0
2014-Oct-26 21:33N 30°00' W 089°59'0 0.1
2014-Oct-26 20:33N 30°00' W 089°59'0 0.1
2014-Oct-26 19:33N 30°00' W 089°59'0 0.0
2014-Oct-26 18:33N 30°00' W 089°59'0 0.0
2014-Oct-26 17:30N 30°00' W 089°59'0 0.0
2014-Oct-26 16:29N 30°00' W 089°59'0 0.0
2014-Oct-26 08:28N 30°00' W 089°59'0 0.0
2014-Oct-26 07:33N 30°00' W 089°59'0 0.0
2014-Oct-26 06:33N 30°00' W 089°59'3 2.8
2014-Oct-26 05:33N 29°58' W 090°02'2 1.5
2014-Oct-26 04:32N 29°58' W 090°03'1 1.4
2014-Oct-26 03:31N 29°58' W 090°02'0 0.0
2014-Oct-26 02:30N 29°58' W 090°02'0 0.2
2014-Oct-26 01:33N 29°57' W 090°02'3 0.2
2014-Oct-25 09:32N 29°60' W 089°59'0 0.3
2014-Oct-25 08:25N 30°00' W 089°59'0 0.0
2014-Oct-25 07:32N 30°00' W 089°59'0 0.2
2014-Oct-25 06:33N 30°00' W 089°59'3 3.0
2014-Oct-25 05:32N 29°58' W 090°02'2 2.0
2014-Oct-25 04:33N 29°57' W 090°04'0 0.1
2014-Oct-25 03:33N 29°57' W 090°04'1 0.6
2014-Oct-25 02:32N 29°57' W 090°03'0 0.4
2014-Oct-25 01:32N 29°57' W 090°04'2 2.0
2014-Oct-25 00:31N 29°58' W 090°02'3 2.8
2014-Oct-24 23:33N 29°60' W 089°60'4 3.8
2014-Oct-24 22:31N 30°01' W 089°55'4 3.8
2014-Oct-24 21:33N 30°00' W 089°59'0 0.0
2014-Oct-24 13:05N 30°00' W 089°59'0 0.0
2014-Oct-24 12:31N 30°00' W 089°59'0 0.0
2014-Oct-24 07:16N 29°60' W 089°59'0 0.1
2014-Oct-24 05:28N 29°60' W 089°59'0 0.0
2014-Oct-24 04:33N 29°60' W 089°59'3 2.9
2014-Oct-24 03:32N 29°58' W 090°02'2 1.5
2014-Oct-24 02:26N 29°57' W 090°03'0 0.2
2014-Oct-24 01:31N 29°57' W 090°03'0 0.4
2014-Oct-24 00:34N 29°58' W 090°03'0 0.1
2014-Oct-23 23:32N 29°58' W 090°03'3 3.4
2014-Oct-23 22:33N 29°60' W 090°00'1 0.5
2014-Oct-23 21:30N 30°00' W 089°59'0 0.0
2014-Oct-23 20:26N 30°00' W 089°59'0 0.1
2014-Oct-23 19:31N 30°00' W 089°59'0 0.0
2014-Oct-23 18:33N 30°00' W 089°59'0 0.0
2014-Oct-23 04:33N 30°00' W 089°59'0 0.0
2014-Oct-23 03:25N 30°00' W 089°59'0 0.0
2014-Oct-23 02:29N 30°00' W 089°59'0 0.0
2014-Oct-23 01:29N 30°00' W 089°59'0 0.1
2014-Oct-23 00:33N 29°60' W 089°59'0 0.1
2014-Oct-22 23:31N 29°60' W 089°59'0 0.0
2014-Oct-22 22:31N 29°60' W 089°59'0 0.0
2014-Oct-22 21:30N 29°60' W 089°59'0 0.1
2014-Oct-22 20:33N 30°00' W 089°59'0 0.0
2014-Oct-22 19:33N 30°00' W 089°59'0 0.0
2014-Oct-22 18:32N 30°00' W 089°59'0 0.0
2014-Oct-22 17:31N 30°00' W 089°59'5 1.2
2014-Oct-22 13:19N 30°01' W 089°54'  

Dump ship's entire track history